Location: Unspecified
(49.9820°N, 20.4363°E)
Time: 04:36:15
(UTC+02:00)

Vanguard 3 - Pass Details

Date: 22 May 2026
Orbit: 507 x 3204 km, 33.3° (Epoch: 6 June)

Event Time Altitude Azimuth Distance (km) Brightness Sun altitude
Rises 13:34:57 0° 242° (WSW) 6,070 12.0 58.2°
Reaches altitude 10° 13:38:48 10° 237° (WSW) 5,354 11.9 57.9°
Maximum altitude 13:54:29 45° 172° (S) 3,902 11.9 56.5°
Drops below altitude 10° 14:11:53 10° 109° (ESE) 5,896 11.5 54.8°
Sets 14:16:22 0° 104° (ESE) 6,707 11.6 54.3°
